Temp
61 61 61 58 56 55 51 44 36 51 57 41 48 42 48 48 47 50 46 47 44 41 41 39 39 39 44 50 48 39 44 36 29 35 46 49 46 42 38 30 31 33 33 36
61 60 58 56 55 55 45 38 39 50 51 32 37 45 44 48 45 46 44 43 45 45 39 34 40 41 49 49 44 40 42 34 22 28 38 46 39 38 36 33 34 29 28 35
59 57 56 55 55 53 45 37 32 38 41 47 44 40 41 39 47 46 47 45 45 41 38 42 37 39 45 48 45 47 44 34 28 20 27 34 30 34 36 35 26 27 28 33
57 55 54 53 53 52 44 39 35 44 32 40 44 47 44 40 36 45 46 41 41 40 31 35 35 40 42 46 48 45 41 30 33 35 38 37 35 36 37 32 34 28 32 33
54 53 52 51 50 49 42 34 34 40 39 43 39 40 39 40 41 41 39 39 43 43 35 37 32 38 38 36 42 39 41 28 33 29 36 36 34 38 39 39 38 36 37 35
54 53 52 51 50 47 39 41 42 40 36 37 36 38 40 42 45 45 47 44 42 39 41 45 45 44 42 40 36 35 34 30 27 21 32 32 25 34 37 39 42 41 33 41
55 54 53 52 50 48 44 41 41 35 30 37 38 44 45 43 45 41 45 46 41 46 51 49 46 43 42 41 40 41 32 30 29 21 26 13 32 43 43 40 43 45 46 47
55 55 53 52 50 50 44 44 40 36 32 39 41 44 44 45 47 44 44 47 49 51 45 30 27 31 33 36 40 40 40 33 23 19 20 28 34 40 39 38 36 47 46 48
56 55 53 52 50 49 45 43 44 44 34 36 47 44 44 39 39 40 43 50 51 47 35 28 17 21 28 28 35 44 35 37 28 22 18 16 34 44 47 46 32 49 50 49
54 54 53 52 51 50 46 46 50 46 35 45 48 41 40 47 43 37 43 43 42 45 30 25 24 25 36 26 28 29 28 28 23 23 22 27 41 46 47 28 32 50 51 50
54 54 53 53 53 51 46 44 50 46 37 44 50 50 45 45 43 34 43 38 38 33 25 26 29 28 32 30 35 32 29 23 22 26 21 21 43 42 31 39 46 48 49 49
52 51 52 53 53 52 51 45 52 52 41 43 52 54 56 54 52 44 42 39 38 38 31 33 33 30 33 31 24 39 26 31 28 28 30 43 47 42 46 48 48 48 49 51
53 52 51 51 52 53 50 46 50 48 41 41 43 43 53 57 56 57 36 41 46 42 44 34 31 23 31 24 28 32 38 43 33 34 39 43 46 48 50 50 50 52 52 52
53 53 52 51 49 50 51 44 50 48 40 32 39 53 48 56 56 54 52 48 48 44 37 31 28 25 34 29 33 32 37 39 36 36 41 40 45 47 50 51 52 52 52 52
53 53 54 52 50 49 46 45 47 50 42 32 38 48 51 53 52 51 51 48 45 39 32 29 26 33 32 35 34 31 39 36 35 32 43 39 40 47 51 50 50 52 52 51
53 53 53 53 53 48 40 32 39 46 46 34 31 46 46 49 50 48 46 46 43 41 34 32 34 40 33 27 27 39 43 46 46 42 47 46 48 50 52 51 53 53 52 51
53 53 52 52 52 43 37 36 42 45 42 32 30 32 43 47 46 45 44 45 41 39 35 32 34 36 35 29 26 38 43 46 47 49 47 43 47 45 50 51 53 54 52 52
51 51 50 50 50 48 40 43 46 43 34 33 29 29 34 45 35 35 42 38 37 35 33 35 33 36 34 26 36 41 44 46 46 47 48 46 48 49 49 51 51 49 48 49
50 51 50 45 40 36 37 47 46 42 36 30 30 27 26 41 36 36 36 37 29 36 30 32 34 30 27 33 39 42 44 44 45 47 47 45 44 45 47 47 48 47 47 49
50 44 37 32 36 46 46 34 32 32 32 35 31 39 29 37 35 32 32 33 28 25 31 37 29 29 39 43 45 47 47 48 48 43 42 43 41 42 44 45 48 49 49 50
39 34 33 39 46 39 34 30 29 29 27 31 35 38 33 43 33 31 34 30 29 20 29 29 28 28 38 44 45 47 48 49 49 48 46 46 45 45 45 47 48 49 49 49
38 38 39 38 34 31 27 26 29 27 27 33 33 35 40 39 42 35 32 28 28 20 34 28 25 35 44 46 46 48 48 45 44 45 45 46 47 46 46 45 46 47 48 49
40 35 31 31 30 23 23 19 23 26 35 35 36 32 35 37 36 32 29 22 24 34 24 24 30 39 45 45 46 46 47 44 45 46 47 47 48 48 47 46 49 47 44 46
32 28 22 25 21 25 28 29 31 36 37 35 36 33 32 34 30 30 24 29 28 21 22 26 34 41 43 45 46 44 41 44 44 45 47 45 44 44 46 48 47 46 44 45
30 30 21 23 33 34 35 36 34 38 39 36 32 32 32 28 27 29 27 23 18 24 26 32 39 41 42 41 42 41 41 42 43 44 43 43 43 42 43 45 45 46 44 43
31 30 27 32 30 30 33 35 33 38 38 37 35 28 25 23 27 24 24 23 23 29 34 38 40 39 40 40 42 42 42 42 42 42 43 44 43 42 42 44 43 42 41 42
28 29 36 34 35 31 32 36 35 41 34 27 27 19 20 28 22 23 28 27 31 35 37 40 41 39 39 40 41 42 42 41 41 42 43 44 44 43 41 40 42 42 41 43
MSLP
1009.35 1010.10 1010.94 1012.17 1013.44 1014.81 1016.10 1017.08 1017.75 1017.31 1017.03 1017.13 1015.68 1015.64 1015.31 1015.80 1016.17 1016.01 1016.17 1016.39 1016.74 1017.02 1017.54 1017.64 1017.50 1017.26 1017.07 1016.95 1017.70 1018.16 1018.59 1017.96 1016.60 1015.76 1014.69 1014.12 1013.38 1013.36 1013.80 1013.77 1012.67 1012.22 1010.63 1008.59
1008.72 1009.51 1010.64 1012.12 1013.19 1013.71 1015.35 1017.09 1017.76 1017.46 1017.11 1017.14 1015.62 1015.80 1015.83 1015.96 1016.43 1016.27 1016.65 1016.93 1017.17 1017.77 1018.30 1018.69 1018.19 1018.15 1018.26 1018.24 1018.48 1018.64 1019.28 1018.75 1018.02 1016.61 1015.67 1013.86 1014.02 1014.67 1015.55 1015.75 1014.82 1013.59 1012.59 1010.77
1008.60 1009.48 1010.46 1011.90 1013.00 1013.84 1015.21 1017.32 1017.99 1018.33 1018.22 1016.59 1015.70 1015.74 1015.73 1016.39 1016.58 1016.48 1016.82 1017.01 1017.58 1017.78 1018.47 1018.74 1018.63 1018.45 1018.65 1018.64 1018.75 1018.97 1019.49 1019.81 1019.44 1018.69 1017.93 1016.93 1015.69 1015.39 1015.40 1015.54 1015.47 1014.44 1013.54 1012.67
1009.54 1010.61 1012.13 1012.97 1013.84 1014.67 1015.00 1016.57 1016.82 1015.71 1016.42 1016.09 1015.36 1014.95 1015.17 1015.92 1017.27 1016.71 1017.00 1017.37 1017.69 1017.69 1018.63 1019.00 1018.86 1018.97 1018.54 1018.50 1018.48 1018.97 1019.45 1019.26 1019.47 1018.68 1017.94 1017.16 1016.31 1015.34 1015.01 1014.81 1014.53 1014.59 1013.24 1013.27
1012.39 1013.26 1014.03 1014.68 1014.90 1014.79 1015.96 1017.23 1016.65 1016.54 1015.85 1015.26 1015.88 1015.53 1015.34 1015.46 1016.59 1016.70 1016.77 1017.16 1017.49 1017.12 1018.01 1018.83 1018.76 1019.41 1019.32 1018.84 1018.91 1018.81 1019.04 1019.07 1019.19 1018.66 1018.22 1017.32 1016.08 1015.15 1014.36 1013.81 1013.38 1012.99 1012.76 1012.71
1012.36 1012.85 1013.47 1014.05 1014.98 1015.28 1016.17 1016.97 1017.05 1016.52 1016.16 1015.90 1015.88 1014.98 1015.26 1015.32 1015.80 1016.54 1016.54 1017.30 1017.66 1017.45 1017.87 1018.31 1019.03 1019.43 1019.24 1019.19 1019.21 1018.92 1019.28 1019.45 1019.55 1018.61 1018.35 1017.26 1015.59 1014.50 1013.60 1012.68 1011.92 1011.33 1010.80 1011.17
1011.77 1012.26 1012.73 1012.87 1013.04 1014.12 1014.99 1015.59 1016.28 1016.84 1016.37 1015.54 1014.91 1014.39 1014.68 1014.91 1015.25 1015.86 1016.75 1017.26 1017.70 1018.06 1017.77 1018.63 1019.05 1019.15 1018.57 1018.53 1018.01 1018.57 1018.65 1019.17 1019.63 1018.99 1018.62 1016.80 1014.03 1013.35 1012.55 1011.66 1010.89 1009.98 1009.25 1009.21
1011.79 1011.73 1012.27 1012.96 1013.87 1014.65 1014.70 1015.54 1016.22 1015.98 1015.67 1015.28 1014.72 1014.52 1014.59 1014.91 1015.19 1015.84 1016.52 1017.33 1017.64 1017.92 1018.25 1019.53 1019.72 1018.46 1017.43 1017.19 1016.77 1016.90 1017.32 1018.21 1019.18 1019.02 1017.94 1015.61 1013.54 1012.09 1011.61 1010.85 1009.93 1008.94 1008.14 1008.39
1010.21 1011.57 1012.37 1013.51 1014.38 1015.00 1015.42 1016.08 1015.92 1015.48 1015.05 1014.34 1013.84 1013.97 1014.59 1014.73 1015.11 1016.00 1016.60 1017.29 1017.77 1018.53 1019.19 1020.37 1020.30 1018.74 1017.71 1016.71 1015.95 1015.54 1017.24 1017.34 1018.40 1018.16 1017.44 1015.22 1012.61 1011.33 1010.83 1010.30 1009.18 1007.77 1007.32 1007.60
1011.00 1011.82 1012.62 1013.27 1013.94 1014.76 1015.33 1015.50 1015.39 1015.04 1014.65 1013.67 1013.45 1013.50 1014.17 1014.55 1015.16 1015.79 1016.56 1017.43 1018.45 1018.98 1019.80 1020.33 1019.75 1018.53 1017.69 1016.77 1016.12 1016.09 1016.69 1017.30 1017.62 1017.30 1016.52 1014.47 1012.52 1011.53 1011.08 1010.92 1010.16 1007.59 1006.71 1007.40
1011.64 1011.94 1012.73 1013.24 1013.41 1014.00 1015.03 1015.08 1014.97 1014.97 1014.61 1014.11 1013.76 1013.58 1013.60 1014.03 1014.68 1015.43 1015.90 1017.52 1018.47 1019.03 1019.75 1019.82 1019.11 1018.21 1017.37 1016.90 1016.21 1015.90 1016.18 1016.52 1016.39 1016.23 1015.22 1013.55 1012.20 1011.78 1012.56 1011.43 1009.89 1008.90 1008.09 1008.02
1012.56 1012.72 1012.87 1012.74 1012.73 1012.97 1014.12 1014.33 1014.07 1014.39 1014.81 1014.42 1014.04 1013.54 1013.27 1013.56 1014.29 1015.08 1016.08 1016.80 1017.36 1018.12 1019.02 1019.04 1018.65 1018.30 1017.69 1017.20 1016.33 1015.74 1015.45 1015.39 1015.77 1015.78 1013.78 1012.45 1011.65 1011.60 1011.30 1010.80 1010.56 1009.54 1008.64 1008.82
1012.53 1012.63 1012.59 1012.34 1011.99 1011.47 1012.40 1013.13 1013.48 1013.98 1014.59 1014.78 1014.36 1013.85 1013.67 1013.91 1014.32 1014.81 1016.01 1016.80 1016.95 1017.39 1017.83 1019.08 1019.55 1019.27 1018.28 1017.49 1016.30 1015.65 1014.82 1014.36 1014.64 1014.24 1012.76 1012.31 1011.52 1010.76 1010.41 1010.25 1009.76 1009.30 1008.87 1009.04
1012.41 1012.30 1012.30 1012.08 1012.07 1011.58 1011.62 1012.53 1012.77 1013.18 1014.45 1014.75 1013.44 1013.23 1013.71 1014.04 1014.78 1015.18 1015.65 1016.33 1016.84 1017.53 1018.55 1019.44 1019.86 1019.48 1018.28 1017.41 1016.44 1015.73 1015.13 1014.47 1013.64 1013.02 1012.43 1012.02 1011.05 1010.65 1009.85 1009.79 1009.51 1008.90 1008.87 1009.10
1012.21 1012.17 1012.09 1012.05 1011.96 1012.26 1011.62 1012.32 1012.37 1012.23 1012.75 1013.61 1013.36 1013.13 1013.60 1014.18 1014.59 1015.17 1015.65 1016.30 1016.77 1017.53 1018.89 1019.28 1019.28 1018.75 1018.33 1017.03 1016.28 1014.82 1014.13 1013.33 1012.95 1012.22 1011.85 1011.69 1011.47 1010.79 1010.23 1009.90 1009.46 1008.80 1008.71 1008.83
1012.01 1011.99 1011.96 1011.88 1011.88 1012.30 1012.93 1013.43 1013.32 1012.71 1012.59 1014.19 1014.07 1013.34 1013.13 1013.62 1014.10 1014.88 1015.49 1016.22 1016.71 1017.20 1017.99 1018.34 1018.13 1017.94 1017.95 1016.96 1014.84 1012.97 1012.48 1012.17 1011.80 1011.37 1011.12 1010.94 1010.73 1010.42 1010.07 1009.96 1009.34 1008.97 1008.72 1008.62
1011.53 1011.55 1011.55 1011.62 1011.74 1012.48 1012.71 1012.88 1012.46 1012.53 1013.17 1014.02 1014.15 1013.75 1013.38 1013.53 1014.14 1014.69 1015.28 1015.95 1016.61 1017.16 1017.61 1017.58 1017.49 1017.30 1017.59 1016.19 1013.98 1012.64 1012.28 1011.63 1011.18 1010.81 1010.57 1010.56 1010.38 1010.09 1009.64 1009.44 1009.14 1008.68 1008.66 1008.77
1011.23 1011.25 1011.32 1011.28 1011.44 1011.69 1012.14 1012.30 1012.30 1012.76 1013.44 1013.62 1013.25 1013.14 1013.69 1013.77 1014.35 1015.13 1015.62 1016.07 1016.61 1017.33 1017.05 1016.68 1016.64 1016.59 1016.27 1014.51 1012.15 1011.68 1011.19 1010.62 1010.22 1010.08 1010.04 1010.05 1010.16 1010.04 1009.57 1009.20 1008.99 1008.79 1008.86 1008.96
1010.77 1010.81 1010.91 1011.25 1011.60 1011.86 1011.88 1011.98 1012.34 1012.75 1013.25 1012.83 1012.56 1012.20 1012.63 1013.55 1014.11 1014.85 1015.62 1016.11 1016.46 1016.23 1016.16 1015.81 1016.20 1015.11 1013.65 1011.24 1011.20 1010.84 1010.39 1009.94 1009.67 1009.59 1009.57 1009.77 1009.95 1009.80 1009.38 1009.00 1008.78 1008.55 1008.61 1008.73
1010.23 1010.65 1010.69 1010.48 1010.93 1011.02 1011.40 1012.74 1013.09 1013.01 1012.67 1012.25 1011.48 1010.79 1011.63 1012.41 1013.00 1014.03 1015.08 1015.78 1015.66 1015.17 1014.34 1014.11 1014.16 1012.66 1011.13 1010.52 1010.08 1009.58 1009.38 1009.11 1009.08 1009.17 1009.20 1009.42 1009.54 1009.59 1009.34 1009.01 1008.60 1008.19 1008.22 1008.19
1010.11 1009.87 1009.68 1009.77 1010.45 1010.93 1011.69 1011.94 1012.02 1012.07 1011.98 1011.43 1010.74 1010.37 1010.66 1011.21 1011.92 1013.24 1014.02 1014.40 1014.44 1013.88 1012.44 1012.53 1012.09 1010.56 1009.44 1008.86 1008.53 1008.20 1008.25 1008.21 1008.17 1008.28 1008.58 1008.97 1009.09 1009.05 1008.94 1008.73 1008.50 1008.17 1008.11 1008.04
1009.06 1009.46 1009.50 1010.14 1010.60 1011.04 1011.30 1011.18 1011.07 1010.81 1010.22 1010.20 1009.97 1010.25 1010.43 1011.03 1011.53 1012.31 1013.09 1013.42 1013.59 1012.68 1011.78 1011.80 1010.44 1008.71 1008.04 1007.29 1006.86 1006.88 1006.96 1007.20 1007.65 1008.04 1008.42 1008.58 1008.61 1008.53 1008.48 1008.47 1008.40 1008.17 1008.18 1008.11
1007.91 1008.69 1008.87 1009.53 1010.06 1010.10 1009.89 1009.74 1009.77 1009.35 1008.76 1009.31 1009.43 1010.15 1010.87 1011.61 1011.81 1012.18 1012.53 1012.92 1012.52 1011.82 1011.37 1010.39 1008.80 1007.97 1007.08 1006.79 1006.60 1006.69 1006.91 1007.37 1007.82 1007.98 1008.06 1008.11 1007.97 1007.81 1007.82 1007.75 1007.67 1007.85 1008.07 1008.10
1007.49 1008.17 1008.56 1008.46 1008.68 1008.28 1007.75 1007.62 1007.09 1007.00 1007.67 1008.75 1009.49 1010.24 1010.81 1011.54 1012.09 1012.20 1012.40 1012.04 1011.58 1010.94 1010.04 1008.84 1007.78 1006.85 1006.57 1006.34 1006.56 1006.87 1007.20 1007.53 1007.69 1007.80 1007.76 1007.74 1007.73 1007.52 1007.36 1007.29 1007.33 1007.48 1007.47 1007.47
1007.09 1007.40 1007.46 1007.55 1007.16 1006.84 1006.65 1006.51 1006.90 1007.12 1007.92 1008.73 1009.85 1010.53 1010.87 1011.56 1011.94 1012.07 1011.99 1011.58 1010.78 1009.76 1008.46 1007.70 1007.20 1006.72 1006.73 1006.83 1007.01 1007.26 1007.45 1007.55 1007.62 1007.61 1007.52 1007.47 1007.36 1007.18 1007.00 1006.89 1006.82 1006.89 1006.78 1006.49
1007.05 1006.89 1006.64 1006.60 1006.90 1007.11 1007.14 1007.15 1007.32 1007.51 1008.17 1009.00 1009.59 1010.51 1011.05 1011.39 1011.62 1011.60 1011.05 1010.60 1009.50 1008.31 1007.46 1006.99 1006.76 1006.85 1006.84 1007.01 1007.19 1007.24 1007.39 1007.44 1007.42 1007.26 1007.11 1006.96 1006.83 1006.67 1006.52 1006.40 1006.46 1006.33 1005.94 1005.34
1006.68 1006.55 1005.94 1006.13 1006.26 1006.94 1006.98 1007.21 1007.50 1007.68 1008.36 1009.05 1009.59 1010.18 1010.51 1010.71 1011.01 1010.84 1009.93 1009.06 1008.61 1008.17 1007.58 1007.13 1006.70 1006.83 1007.07 1007.17 1007.19 1007.19 1007.16 1007.11 1007.00 1006.83 1006.65 1006.43 1006.20 1006.11 1006.10 1006.11 1005.83 1005.52 1005.09 1004.46
Wind_Speed
19 22 25 28 29 23 9 3 2 5 5 5 4 9 3 0 8 5 5 3 2 2 5 4 4 5 8 12 9 10 11 8 17 20 21 20 22 15 5 4 6 5 4 8
16 21 27 30 29 24 7 4 2 2 3 6 8 5 6 2 5 5 4 5 3 4 1 2 3 6 9 8 5 5 9 5 10 13 12 11 11 5 2 9 4 6 4 3
15 25 31 30 26 20 6 5 4 2 2 9 12 7 10 6 1 8 5 7 5 4 3 6 5 10 7 11 2 8 7 9 13 12 14 15 17 15 8 6 5 8 9 9
20 26 26 25 23 14 5 3 3 5 9 12 7 12 10 13 7 5 7 5 6 5 1 5 5 9 13 12 10 10 11 15 16 18 19 18 19 20 17 10 13 13 15 13
23 20 19 18 17 12 4 3 3 3 1 6 4 5 7 13 11 11 10 6 9 7 4 6 10 13 13 13 12 13 10 14 16 20 18 20 22 20 20 19 17 12 15 16
25 27 28 27 21 5 3 2 3 1 7 10 10 9 10 13 13 8 6 11 7 6 5 6 9 11 14 14 14 15 13 11 12 18 15 19 18 16 18 19 18 14 17 15
27 29 30 31 31 12 3 4 6 2 3 7 9 11 13 13 14 9 11 7 6 2 3 5 10 14 17 15 19 14 16 14 10 12 12 16 14 16 21 21 19 21 17 17
26 28 29 29 27 11 4 5 3 4 4 8 11 12 10 11 11 11 10 8 2 3 2 3 6 5 5 10 18 17 16 12 6 5 9 18 18 15 13 11 20 19 9 6
30 25 23 23 26 16 3 5 4 3 3 6 11 9 11 7 8 8 8 3 4 3 2 2 3 3 5 4 3 3 8 10 8 3 6 8 5 13 9 15 10 11 6 10
9 18 21 22 26 23 6 2 7 2 1 2 7 6 9 9 8 4 10 8 5 5 3 3 3 4 8 8 12 9 2 2 9 11 9 8 11 8 7 2 6 11 6 10
9 19 17 21 24 28 14 3 7 2 1 3 2 9 7 9 6 3 9 7 4 3 4 3 4 4 4 3 8 8 4 3 4 3 5 5 5 6 6 6 13 13 8 8
0 3 9 20 26 29 27 5 8 6 2 1 4 7 5 6 10 6 5 2 8 5 3 4 3 4 5 11 13 7 3 5 1 3 5 16 13 5 9 15 12 15 7 7
3 4 6 13 13 33 22 7 8 5 2 2 4 6 6 4 3 3 5 2 4 3 2 2 1 4 3 5 7 8 7 2 4 8 3 12 9 8 8 11 13 8 7 5
9 7 5 7 11 18 23 11 7 7 4 3 4 11 12 12 9 10 7 6 6 4 3 3 2 2 4 4 7 10 7 12 9 13 13 8 8 13 4 7 12 7 3 3
10 10 11 5 3 3 8 2 4 8 7 4 2 7 12 13 12 13 11 9 7 3 3 3 3 3 6 8 10 13 9 14 10 10 9 6 11 13 7 11 16 7 7 6
13 13 12 11 6 5 4 1 2 5 2 4 4 2 11 12 14 13 13 9 6 5 4 3 4 7 5 4 6 9 7 10 11 10 7 8 10 11 11 9 12 9 5 4
14 15 14 11 9 3 3 2 0 11 5 3 4 5 3 10 6 5 4 6 4 3 3 5 6 7 2 5 15 10 11 12 14 13 7 8 8 7 7 8 11 8 2 2
15 15 14 14 8 3 3 2 9 8 5 3 4 4 4 9 5 5 3 4 3 4 3 2 5 5 6 10 11 11 11 10 9 7 8 5 7 10 9 9 8 8 5 5
13 14 17 3 3 3 3 12 16 2 2 3 3 7 6 8 4 4 2 3 4 4 5 5 4 5 11 10 10 12 11 9 8 8 7 4 6 8 8 8 9 9 7 7
15 10 4 4 4 10 14 5 2 2 2 3 3 3 5 9 6 4 6 4 4 4 7 6 6 11 16 17 15 13 11 13 10 8 8 6 6 5 6 10 10 7 7 7
1 3 4 5 18 3 1 3 4 3 4 4 3 5 7 7 7 5 4 4 4 4 5 8 5 6 14 20 21 19 19 19 14 8 5 7 7 9 9 8 7 7 7 7
9 5 4 3 2 3 4 3 3 3 5 6 6 7 5 3 5 3 5 4 2 5 2 3 4 7 10 9 5 8 4 2 1 3 6 8 10 10 9 8 11 8 9 11
6 2 4 4 2 5 6 6 4 5 7 6 7 8 4 1 1 1 3 3 5 1 2 4 5 6 6 4 3 3 5 1 4 6 7 8 11 11 9 10 10 5 8 12
3 3 5 4 5 6 5 7 5 4 7 10 9 5 4 3 3 2 4 5 1 3 4 5 4 6 6 3 1 2 1 5 6 7 8 7 8 9 9 10 6 9 12 12
3 3 4 4 2 1 4 5 4 6 10 9 6 3 2 2 3 3 2 3 4 6 3 4 4 5 4 2 1 2 4 4 6 6 6 7 7 8 9 9 7 9 12 14
2 1 3 5 6 3 3 5 5 5 8 6 3 3 3 3 3 4 6 3 5 3 2 0 3 1 0 1 3 4 4 5 6 6 7 7 8 8 10 9 8 11 14 15
2 1 3 5 4 5 2 7 4 4 5 3 3 5 6 4 4 4 4 4 2 6 6 4 2 2 3 4 5 5 6 6 7 7 7 9 7 6 5 8 13 9 12 14
Wind_Direction
226 209 189 166 154 139 127 144 166 357 309 206 199 232 136 54 131 87 89 95 86 21 11 320 322 300 305 6 357 321 292 279 284 294 296 270 284 295 6 285 318 306 342 272
213 185 160 159 154 148 120 103 83 351 323 185 208 137 132 166 165 138 147 131 109 81 91 294 286 344 330 327 0 322 347 305 318 308 293 265 260 68 66 332 236 245 270 252
180 157 151 158 155 129 83 121 145 121 212 259 199 170 178 146 269 154 161 134 138 139 215 225 266 290 289 300 290 283 287 272 265 271 280 290 295 303 266 196 288 328 270 323
130 132 142 148 142 118 83 134 234 180 179 213 221 169 179 169 184 206 169 160 194 169 158 282 254 299 303 309 287 255 263 271 273 273 283 288 287 295 291 251 235 243 287 306
104 117 129 138 135 110 73 125 137 291 35 133 130 202 201 192 178 167 183 194 194 180 189 249 297 289 277 282 297 291 282 283 290 285 287 288 284 281 284 278 271 240 253 267
146 155 160 159 161 126 119 83 1 97 161 174 182 190 184 196 181 185 192 198 207 194 239 316 306 299 288 283 282 276 282 283 282 276 290 296 280 275 279 284 284 258 244 254
176 176 177 174 169 158 116 160 135 140 176 197 196 180 197 192 197 179 203 182 193 174 72 293 285 275 272 264 256 247 258 256 270 279 292 271 265 254 260 268 271 282 257 243
200 190 184 180 171 150 98 134 129 182 152 196 202 216 193 188 189 201 177 194 185 63 49 23 300 278 235 241 244 243 224 233 251 248 259 273 285 262 274 280 302 282 232 279
215 198 173 173 176 163 101 158 247 268 145 211 204 199 198 184 175 183 210 142 94 106 97 151 249 275 304 283 308 32 40 260 209 226 272 276 300 316 322 317 282 282 225 229
109 156 172 186 182 183 185 195 208 276 135 302 206 194 195 195 176 183 183 161 175 185 147 235 238 246 263 274 285 266 168 231 241 247 254 261 269 334 10 254 322 338 104 29
10 182 176 202 202 191 187 211 194 222 139 306 201 251 179 184 204 140 144 127 212 160 179 234 240 270 270 300 300 306 280 258 240 232 225 274 38 32 6 283 331 327 53 54
308 246 306 329 221 204 189 204 182 202 160 340 313 260 191 213 190 154 144 184 148 154 196 241 273 289 301 290 283 295 274 212 312 270 289 310 302 179 203 277 302 268 82 76
296 290 331 354 284 216 199 196 164 163 171 306 230 209 220 238 192 212 121 211 227 152 115 78 280 263 285 259 269 303 300 287 253 316 283 315 325 307 220 261 287 304 67 106
314 313 320 359 346 351 218 198 174 150 115 217 244 188 219 209 219 231 187 169 190 106 74 126 219 252 252 267 280 290 274 304 296 278 286 334 331 320 243 258 287 268 249 152
304 312 313 297 314 280 11 17 239 178 157 163 192 159 206 212 210 214 217 210 218 139 138 185 218 232 257 257 260 256 247 255 266 276 303 175 247 278 280 322 311 253 238 236
286 292 294 297 314 77 78 304 268 244 122 121 177 93 189 192 190 203 207 205 213 213 150 208 219 241 285 270 269 241 271 307 291 284 274 272 292 307 305 289 273 306 358 351
287 294 287 279 289 129 167 231 15 189 100 132 154 166 209 162 160 185 188 194 196 202 212 225 244 251 190 249 257 270 273 292 292 283 291 301 285 277 288 310 303 301 234 220
280 281 288 285 297 297 204 149 151 112 97 157 155 121 129 152 155 170 178 184 113 193 221 225 218 240 216 248 251 259 254 262 263 271 259 277 334 314 287 278 273 281 293 294
272 280 296 289 143 172 205 177 153 13 165 168 189 151 147 168 150 114 109 139 183 176 215 205 190 214 225 228 237 246 255 256 279 287 278 302 311 315 303 268 271 267 254 248
293 311 209 198 193 132 125 42 139 170 236 216 186 187 140 168 153 149 138 169 218 211 216 164 216 243 254 249 250 258 257 263 272 270 263 277 300 306 292 296 302 282 262 254
121 210 214 106 138 93 139 191 191 134 193 191 204 186 139 178 167 135 198 169 209 219 210 177 209 249 242 247 245 245 244 248 248 233 237 265 275 292 296 302 297 296 283 278
180 145 94 101 116 120 186 193 152 209 196 168 173 178 164 142 167 166 161 192 175 242 170 203 232 245 256 261 215 219 210 133 5 301 282 282 282 279 279 274 280 293 312 307
137 133 118 168 122 166 188 170 183 191 158 167 158 148 116 116 13 145 126 189 225 97 206 220 236 252 257 211 223 234 129 165 262 264 267 274 283 293 288 277 262 295 302 293
107 142 137 187 173 211 197 189 164 113 125 140 145 126 129 110 161 174 195 214 276 234 219 223 245 253 223 97 44 99 256 271 277 271 276 293 295 289 287 279 291 282 273 280
119 190 158 180 173 200 36 62 79 117 135 132 123 73 97 114 137 206 250 207 238 221 224 259 52 55 79 65 348 304 287 277 273 284 281 278 278 276 280 282 279 281 282 272
167 150 121 105 124 123 136 130 122 129 132 127 94 117 146 150 186 201 212 205 222 228 186 267 102 96 258 231 246 249 269 286 285 279 276 277 275 271 276 282 288 284 280 270
37 49 110 173 149 158 157 138 141 135 123 132 135 138 191 120 174 219 245 222 316 356 350 346 151 156 312 317 293 285 277 280 281 284 284 280 278 277 279 286 293 288 290 286